SCP
0 0 0 0 0 0 0 0 0 0 0 0 0 0 0 0 0 0 0 0 0 0 0 0 0 0 0 0 0 0 0 0 0 0 0 0 0 0 0 0 0 0 0
0 0 0 0 0 0 0 0 0 0 0 0 0 0 0 0 0 0 0 0 0 0 0 0 0 0 0 0 0 0 0 0 0 0 0 0 0 0 0 0 0 0 0
0 0 0 0 0 0 0 0 0 0 0 0 0 0 0 0 0 0 0 0 0 0 0 0 0 0 0 0 0 0 0 0 0 0 0 0 0 0 0 0 0 0 0
0 0 0 0 0 0 0 0 0 0 0 0 0 0 0 0 0 0 0 0 0 0 0 0 0 0 0 0 0 0 0 0 0 0 0 0 0 0 0 0 0 0 0
0 0 0 0 0 0 0 0 0 0 0 0 0 0 0 0 0 0 0 0 0 0 0 0 0 0 0 0 0 0 0 0 0 0 0 0 0 0 0 0 0 0 0
0 0 0 0 0 0 0 0 0 0 0 0 0 0 0 0 0 0 0 0 0 0 0 0 0 0 0 0 0 0 0 0 0 0 0 0 0 0 0 0 0 0 0
0 0 0 0 0 0 0 0 0 0 0 0 0 0 0 0 0 0 0 0 0 0 0 0 0 0 0 0 0 0 0 0 0 0 0 0 0 0 0 0 0 0 0
0 0 0 0 0 0 0 0 0 0 0 0 0 0 0 0 0 0 0 0 0 0 0 0 0 0 0 0 0 0 0 0 0 0 0 0 0 0 0 0 0 0 0
0 0 0 0 0 0 0 0 0 0 0 0 0 0 0 0 0 0 0 0 0 0 0 0 0 0 0 0 0 0 0 0 0 0 0 0 0 0 0 0 0 0 0
0 0 -0 -0 -0 0 0 0 0 0 0 0 0 0 0 0 0 0 0 0 0 0 0 0 0 0 0 0 0 0 0 0 0 0 0 0 0 0 0 0 0 0 0
0 -0 0 0 0 0 0 0 0 0 0 0 0 0 0 0 0 0 0 0 0 0 0 0 0 0 0 0 0 0 0 0 0 0 0 0 0 0 0 0 0 0 0
0 0 0 0 0 0 0 0 0 0 0 0 0 0 0 0 0 0 0 0 0 0 0 0 0 0 0 0 0 0 0 0 0 0 0 0 0 0 0 0 0 0 0
0 0 0 0 0 0 0 0 0 0 0 0 0 0 0 0 0 0 0 0 0 0 0 0 0 0 0 0 0 0 0 0 0 0 0 0 0 0 0 0 0 0 0
0 0 0 0 0 0 0 0 0 0 0 0 0 0 0 0 0 0 0 0 0 0 0 0 0 0 0 0 0 0 0 0 0 0 0 0 0 0 0 0 0 0 0
0 0 0 0 0 0 0 0 0 0 0 0 0 0 0 0 0 0 0 0 0 0 0 0 0 0 0 0 0 0 0 0 0 0 0 0 0 0 0 0 0 0 0
0 0 0 0 0 0 0 0 0 0 0 0 0 0 0 0 0 0 0 0 0 0 0 0 0 0 0 0 0 0 0 0 0 0 0 0 0 0 0 0 0 0 0
0 0 0 0 0 0 0 0 0 0 0 0 0 0 0 0 0 0 0 0 0 0 0 0 0 0 0 0 0 0 0 0 0 0 0 0 0 0 0 0 0 0 0
0 0 0 0 0 0 0 0 0 0 0 0 0 0 0 0 0 0 0 0 0 0 0 0 0 0 0 0 0 0 0 0 0 0 0 0 0 0 0 0 0 0 0
0 0 0 0 0 0 0 0 0 0 0 0 0 0 0 0 0 0 0 0 0 0 0 0 0 0 0 0 0 0 0 0 0 0 0 0 0 0 0 0 0 0 0
0 0 0 0 0 0 0 0 0 0 0 0 0 0 0 0 0 0 0 0 0 0 0 0 0 0 0 0 0 0 0 0 0 0 0 0 0 0 0 0 0 0 0
0 0 0 0 0 0 0 0 0 0 0 0 0 0 0 0 0 0 0 0 0 0 0 0 0 0 0 0 0 0 0 0 0 0 0 0 0 0 0 0 0 0 0
0 0 0 0 0 0 0 0 0 0 0 0 0 0 0 0 0 0 0 0 0 0 0 0 0 0 0 0 0 0 0 0 0 0 0 0 0 0 0 0 0 0 0
0 0 0 0 0 0 0 0 0 0 0 0 0 0 0 0 0 0 0 0 0 0 0 0 0 0 0 0 0 0 0 0 0 0 0 0 0 0 0 0 0 0 0
0 0 0 0 0 0 0 0 0 0 0 0 0 0 0 0 0 0 0 0 0 0 0 0 0 0 0 0 0 0 0 0 0 0 0 0 0 0 0 0 0 0 0
0 0 0 0 0 0 0 0 0 0 0 0 0 0 0 0 0 0 0 0 0 0 0 0 0 0 0 0 0 0 0 0 0 0 0 0 0 0 0 0 0 0 0
0 0 0 0 0 0 0 0 0 0 0 0 0 0 0 0 0 0 0 0 0 0 0 0 0 0 0 0 0 0 0 0 0 0 0 0 0 0 0 0 0 0 0
Wind_Speed_500mb
16 12 5 2 3 7 12 18 24 31 34 39 42 45 49 52 53 58 66 73 79 82 85 85 85 81 83 82 87 88 82 91 90 88 87 83 83 78 70 70 72 80 82
9 5 7 9 13 18 22 28 33 40 46 49 53 56 58 61 61 63 64 65 71 74 78 82 82 79 79 83 89 83 88 82 85 87 91 88 84 75 70 64 68 76 78
9 11 18 22 26 29 33 38 41 45 49 55 62 66 67 67 66 66 65 66 70 72 71 73 74 71 70 71 77 86 85 83 81 84 92 85 79 72 67 62 63 72 76
15 17 23 28 33 39 44 46 49 51 56 59 63 66 68 68 68 68 67 68 72 73 71 71 72 71 70 71 72 74 76 78 80 81 82 80 77 71 64 63 63 75 76
20 22 25 28 33 37 42 48 52 55 57 60 62 64 66 68 69 69 68 70 73 75 74 75 76 73 68 71 73 74 74 76 78 75 77 77 78 73 72 69 64 70 74
29 31 32 33 35 38 42 46 50 54 57 60 61 63 64 65 64 66 67 70 72 75 79 76 74 69 68 70 71 73 76 73 75 75 76 79 80 78 71 69 69 78 79
38 40 42 44 46 48 51 54 56 58 61 64 66 65 66 62 61 64 65 71 74 75 75 73 70 65 66 69 71 73 77 74 72 68 70 73 76 73 69 69 75 80 81
42 43 46 48 50 52 54 57 59 62 64 66 68 70 74 68 63 63 62 68 74 74 73 68 66 67 64 66 70 74 73 71 68 68 69 64 52 54 58 58 66 69 70
42 43 45 49 51 52 54 55 57 61 62 64 68 69 71 75 69 63 61 65 70 71 68 65 66 68 63 64 71 71 70 70 64 60 51 43 36 43 53 64 68 72 69
43 43 44 48 52 56 57 58 59 61 64 64 66 66 67 67 63 68 64 61 68 70 68 63 64 67 64 65 71 68 65 65 59 56 46 43 44 47 51 55 59 70 73
39 41 44 49 53 56 59 59 63 65 66 68 70 69 69 67 65 58 55 60 66 67 69 66 64 63 66 65 61 64 57 55 54 49 49 51 49 47 45 48 52 54 57
46 49 52 55 58 61 65 64 65 68 70 71 72 74 72 68 64 63 55 50 54 66 70 64 63 60 56 53 47 55 43 45 49 54 58 53 46 46 48 45 46 43 42
55 56 57 59 62 65 69 70 70 69 70 73 73 75 76 73 66 60 57 52 52 58 65 56 51 48 45 38 40 40 40 49 53 63 60 54 50 50 47 44 47 47 45
69 68 68 70 69 67 70 72 72 70 70 70 71 70 72 69 63 56 53 51 52 56 52 44 43 41 35 34 38 36 49 49 54 59 58 50 49 48 45 43 44 42 42
74 74 74 72 72 72 69 66 64 62 62 64 63 59 58 59 50 47 45 42 40 38 33 35 34 33 29 29 38 42 52 48 48 54 51 47 49 45 42 41 40 40 42
74 73 73 73 70 69 66 64 57 50 55 52 43 43 44 42 40 38 34 32 22 20 24 29 29 26 21 28 39 42 41 42 37 39 47 44 42 42 41 43 41 41 41
72 73 73 70 66 62 61 57 58 47 38 38 31 29 30 31 31 30 29 21 9 12 19 23 27 18 17 25 36 36 33 33 29 28 33 41 37 38 38 39 37 41 44
67 67 67 65 62 58 52 47 42 41 36 21 20 24 26 26 27 27 20 10 6 13 14 18 16 12 16 19 26 31 32 31 28 29 27 29 34 37 37 42 40 42 44
61 61 60 59 55 50 44 38 33 29 24 20 19 20 22 21 22 17 11 6 11 14 17 16 14 10 11 6 13 16 20 23 29 30 31 32 34 40 42 43 45 41 45
54 53 54 55 51 43 35 32 27 22 20 19 18 21 21 17 14 11 10 12 10 14 13 11 10 6 6 4 8 12 17 22 25 29 32 34 35 36 38 41 44 44 46
47 46 45 45 42 35 31 27 23 21 22 19 18 19 23 19 14 12 10 10 10 11 11 11 13 13 12 14 15 15 13 14 16 20 24 28 32 36 37 41 43 46 47
41 41 39 36 31 28 27 24 23 24 23 20 19 18 18 17 14 12 12 13 13 14 15 15 15 16 17 18 19 21 24 26 28 32 34 36 39 41 42 43 43 44 46
33 33 32 30 28 24 23 23 22 22 21 20 19 18 18 16 14 14 14 14 14 16 16 16 17 16 17 19 21 24 26 29 31 34 36 38 38 39 39 39 40 41 42
26 26 25 24 22 21 21 21 20 21 20 19 18 17 15 13 13 14 14 15 16 16 17 18 20 22 24 25 26 27 29 30 32 34 36 37 39 39 40 40 41 41 41
21 20 18 17 15 14 14 14 14 13 13 13 12 12 12 11 12 13 15 16 17 19 20 22 24 26 28 30 32 34 35 36 38 40 41 41 41 41 41 41 42 42 41
19 17 16 14 12 10 10 10 11 11 10 10 10 10 11 12 14 17 20 22 24 26 27 28 30 32 34 35 36 37 37 40 42 43 43 43 43 43 43 43 43 42 40
Wind_Direction_500mb
98 97 94 127 291 297 296 294 292 293 294 294 294 291 288 284 278 273 268 267 268 271 275 276 274 273 274 273 273 272 272 274 269 272 270 274 273 269 267 260 250 238 222
58 26 320 296 286 286 288 291 292 294 294 293 291 291 290 287 285 280 276 271 269 268 270 273 273 274 273 272 274 274 271 272 272 273 272 273 272 269 265 257 247 231 217
330 312 304 300 297 298 296 294 295 295 294 292 292 292 292 289 284 281 279 277 274 273 272 271 272 273 272 270 268 272 274 273 269 267 269 271 269 267 260 246 237 223 212
323 307 300 299 297 297 297 297 297 297 297 296 296 296 295 293 289 287 285 281 278 276 275 272 272 271 270 271 273 274 275 273 270 267 266 265 264 262 251 236 226 218 210
340 325 317 314 309 304 302 301 301 300 299 298 296 294 293 292 293 292 288 284 280 280 277 275 274 271 268 267 267 270 272 272 269 264 262 259 257 247 236 230 223 215 207
344 336 330 324 318 315 313 311 310 309 306 304 301 298 296 293 291 287 284 280 278 278 278 278 276 271 267 268 269 270 271 268 264 261 261 259 257 249 233 226 215 199 196
338 336 331 327 324 322 321 319 316 314 313 312 309 304 299 295 290 285 281 280 279 278 277 277 276 272 270 269 270 269 269 267 263 264 262 261 255 249 238 215 209 209 208
333 334 330 326 325 323 321 321 318 316 313 310 309 308 304 300 294 287 281 277 278 278 279 279 276 274 271 270 271 269 268 266 262 259 258 259 259 257 234 229 217 203 204
325 327 326 324 325 325 324 323 320 317 314 311 308 307 307 306 301 292 284 282 281 282 281 277 275 274 273 271 271 269 267 264 260 256 256 250 241 231 222 205 198 196 199
319 320 322 323 323 323 322 323 321 319 317 315 311 310 307 306 307 304 295 286 284 285 284 279 276 275 274 272 271 267 263 260 255 245 232 223 217 210 204 198 200 201 206
311 316 317 316 316 317 317 319 318 317 316 315 312 311 309 308 306 302 299 293 290 287 284 283 280 277 275 273 270 265 261 258 250 238 221 207 196 195 203 212 218 219 215
306 309 310 310 312 312 311 312 310 310 310 309 308 307 305 306 306 302 298 288 285 284 282 283 283 283 279 275 260 257 251 246 236 219 205 199 200 204 208 206 207 213 216
304 305 306 307 310 311 310 310 309 309 309 310 309 308 307 306 305 304 299 295 286 280 279 283 283 284 280 261 247 247 236 231 223 204 202 200 202 202 200 198 202 202 204
304 304 304 304 304 306 306 305 305 307 307 307 307 308 308 309 313 311 304 296 288 281 281 275 278 287 274 248 233 231 221 228 217 208 197 199 203 199 197 199 203 208 211
299 299 298 297 299 299 300 300 300 301 303 304 306 307 310 311 316 314 310 305 296 288 284 272 278 288 256 231 229 220 215 222 217 210 200 203 198 196 200 206 212 218 222
299 299 298 297 298 299 301 302 302 303 302 301 300 304 312 318 320 320 315 311 300 303 278 272 289 286 245 227 223 220 218 214 214 205 217 216 206 206 212 215 219 225 232
298 297 297 297 297 298 302 304 303 303 298 294 299 306 310 313 322 321 319 313 313 295 288 295 300 283 244 212 226 226 226 217 218 235 219 212 211 217 219 221 228 234 236
298 298 298 297 298 299 300 299 296 299 304 291 294 302 305 308 315 320 317 287 263 267 303 331 334 274 253 237 232 239 245 240 234 211 210 219 225 223 231 231 236 242 243
298 298 298 297 298 297 294 289 287 288 294 300 304 308 310 312 315 318 302 288 290 277 291 310 340 354 245 228 239 242 237 230 222 230 243 242 241 239 240 243 246 251 252
299 298 297 298 299 295 287 279 275 272 275 282 295 316 325 326 314 302 302 276 273 260 270 302 331 339 340 290 264 261 257 254 251 249 247 249 249 248 253 256 255 259 262
301 301 299 299 297 294 282 271 266 260 261 267 284 312 324 329 315 302 306 299 290 282 280 275 283 287 277 271 261 253 257 259 257 254 254 257 258 261 264 264 265 265 262
305 307 305 301 294 288 284 275 265 256 256 262 272 292 310 320 310 297 298 301 303 303 300 295 288 284 280 278 274 268 267 267 266 267 268 268 269 270 271 270 266 263 259
310 311 309 301 291 282 275 266 257 250 248 253 264 281 294 302 300 292 292 294 293 293 293 295 294 288 282 278 276 276 275 274 272 271 271 270 271 271 270 268 265 262 262
314 315 312 305 296 283 270 261 255 251 249 256 267 280 286 293 298 298 297 297 298 297 298 296 295 294 292 291 290 288 286 285 285 282 281 280 278 277 275 273 270 268 265
317 313 308 304 301 296 287 275 269 266 265 267 274 281 287 292 295 298 299 300 301 300 299 298 298 297 297 296 295 293 291 289 285 283 282 281 281 280 279 278 276 274 271
313 310 306 302 297 290 285 279 280 282 284 285 287 289 292 298 305 307 305 303 302 303 302 300 298 296 295 294 294 293 292 291 289 287 285 284 283 281 279 277 275 273 270
Wind_Speed_850mb
16 12 5 2 3 7 12 18 24 31 34 39 42 45 49 52 53 58 66 73 79 82 85 85 85 81 83 82 87 88 82 91 90 88 87 83 83 78 70 70 72 80 82
9 5 7 9 13 18 22 28 33 40 46 49 53 56 58 61 61 63 64 65 71 74 78 82 82 79 79 83 89 83 88 82 85 87 91 88 84 75 70 64 68 76 78
9 11 18 22 26 29 33 38 41 45 49 55 62 66 67 67 66 66 65 66 70 72 71 73 74 71 70 71 77 86 85 83 81 84 92 85 79 72 67 62 63 72 76
15 17 23 28 33 39 44 46 49 51 56 59 63 66 68 68 68 68 67 68 72 73 71 71 72 71 70 71 72 74 76 78 80 81 82 80 77 71 64 63 63 75 76
20 22 25 28 33 37 42 48 52 55 57 60 62 64 66 68 69 69 68 70 73 75 74 75 76 73 68 71 73 74 74 76 78 75 77 77 78 73 72 69 64 70 74
29 31 32 33 35 38 42 46 50 54 57 60 61 63 64 65 64 66 67 70 72 75 79 76 74 69 68 70 71 73 76 73 75 75 76 79 80 78 71 69 69 78 79
38 40 42 44 46 48 51 54 56 58 61 64 66 65 66 62 61 64 65 71 74 75 75 73 70 65 66 69 71 73 77 74 72 68 70 73 76 73 69 69 75 80 81
42 43 46 48 50 52 54 57 59 62 64 66 68 70 74 68 63 63 62 68 74 74 73 68 66 67 64 66 70 74 73 71 68 68 69 64 52 54 58 58 66 69 70
42 43 45 49 51 52 54 55 57 61 62 64 68 69 71 75 69 63 61 65 70 71 68 65 66 68 63 64 71 71 70 70 64 60 51 43 36 43 53 64 68 72 69
43 43 44 48 52 56 57 58 59 61 64 64 66 66 67 67 63 68 64 61 68 70 68 63 64 67 64 65 71 68 65 65 59 56 46 43 44 47 51 55 59 70 73
39 41 44 49 53 56 59 59 63 65 66 68 70 69 69 67 65 58 55 60 66 67 69 66 64 63 66 65 61 64 57 55 54 49 49 51 49 47 45 48 52 54 57
46 49 52 55 58 61 65 64 65 68 70 71 72 74 72 68 64 63 55 50 54 66 70 64 63 60 56 53 47 55 43 45 49 54 58 53 46 46 48 45 46 43 42
55 56 57 59 62 65 69 70 70 69 70 73 73 75 76 73 66 60 57 52 52 58 65 56 51 48 45 38 40 40 40 49 53 63 60 54 50 50 47 44 47 47 45
69 68 68 70 69 67 70 72 72 70 70 70 71 70 72 69 63 56 53 51 52 56 52 44 43 41 35 34 38 36 49 49 54 59 58 50 49 48 45 43 44 42 42
74 74 74 72 72 72 69 66 64 62 62 64 63 59 58 59 50 47 45 42 40 38 33 35 34 33 29 29 38 42 52 48 48 54 51 47 49 45 42 41 40 40 42
74 73 73 73 70 69 66 64 57 50 55 52 43 43 44 42 40 38 34 32 22 20 24 29 29 26 21 28 39 42 41 42 37 39 47 44 42 42 41 43 41 41 41
72 73 73 70 66 62 61 57 58 47 38 38 31 29 30 31 31 30 29 21 9 12 19 23 27 18 17 25 36 36 33 33 29 28 33 41 37 38 38 39 37 41 44
67 67 67 65 62 58 52 47 42 41 36 21 20 24 26 26 27 27 20 10 6 13 14 18 16 12 16 19 26 31 32 31 28 29 27 29 34 37 37 42 40 42 44
61 61 60 59 55 50 44 38 33 29 24 20 19 20 22 21 22 17 11 6 11 14 17 16 14 10 11 6 13 16 20 23 29 30 31 32 34 40 42 43 45 41 45
54 53 54 55 51 43 35 32 27 22 20 19 18 21 21 17 14 11 10 12 10 14 13 11 10 6 6 4 8 12 17 22 25 29 32 34 35 36 38 41 44 44 46
47 46 45 45 42 35 31 27 23 21 22 19 18 19 23 19 14 12 10 10 10 11 11 11 13 13 12 14 15 15 13 14 16 20 24 28 32 36 37 41 43 46 47
41 41 39 36 31 28 27 24 23 24 23 20 19 18 18 17 14 12 12 13 13 14 15 15 15 16 17 18 19 21 24 26 28 32 34 36 39 41 42 43 43 44 46
33 33 32 30 28 24 23 23 22 22 21 20 19 18 18 16 14 14 14 14 14 16 16 16 17 16 17 19 21 24 26 29 31 34 36 38 38 39 39 39 40 41 42
26 26 25 24 22 21 21 21 20 21 20 19 18 17 15 13 13 14 14 15 16 16 17 18 20 22 24 25 26 27 29 30 32 34 36 37 39 39 40 40 41 41 41
21 20 18 17 15 14 14 14 14 13 13 13 12 12 12 11 12 13 15 16 17 19 20 22 24 26 28 30 32 34 35 36 38 40 41 41 41 41 41 41 42 42 41
19 17 16 14 12 10 10 10 11 11 10 10 10 10 11 12 14 17 20 22 24 26 27 28 30 32 34 35 36 37 37 40 42 43 43 43 43 43 43 43 43 42 40
Wind_Direction_850mb
98 97 94 127 291 297 296 294 292 293 294 294 294 291 288 284 278 273 268 267 268 271 275 276 274 273 274 273 273 272 272 274 269 272 270 274 273 269 267 260 250 238 222
58 26 320 296 286 286 288 291 292 294 294 293 291 291 290 287 285 280 276 271 269 268 270 273 273 274 273 272 274 274 271 272 272 273 272 273 272 269 265 257 247 231 217
330 312 304 300 297 298 296 294 295 295 294 292 292 292 292 289 284 281 279 277 274 273 272 271 272 273 272 270 268 272 274 273 269 267 269 271 269 267 260 246 237 223 212
323 307 300 299 297 297 297 297 297 297 297 296 296 296 295 293 289 287 285 281 278 276 275 272 272 271 270 271 273 274 275 273 270 267 266 265 264 262 251 236 226 218 210
340 325 317 314 309 304 302 301 301 300 299 298 296 294 293 292 293 292 288 284 280 280 277 275 274 271 268 267 267 270 272 272 269 264 262 259 257 247 236 230 223 215 207
344 336 330 324 318 315 313 311 310 309 306 304 301 298 296 293 291 287 284 280 278 278 278 278 276 271 267 268 269 270 271 268 264 261 261 259 257 249 233 226 215 199 196
338 336 331 327 324 322 321 319 316 314 313 312 309 304 299 295 290 285 281 280 279 278 277 277 276 272 270 269 270 269 269 267 263 264 262 261 255 249 238 215 209 209 208
333 334 330 326 325 323 321 321 318 316 313 310 309 308 304 300 294 287 281 277 278 278 279 279 276 274 271 270 271 269 268 266 262 259 258 259 259 257 234 229 217 203 204
325 327 326 324 325 325 324 323 320 317 314 311 308 307 307 306 301 292 284 282 281 282 281 277 275 274 273 271 271 269 267 264 260 256 256 250 241 231 222 205 198 196 199
319 320 322 323 323 323 322 323 321 319 317 315 311 310 307 306 307 304 295 286 284 285 284 279 276 275 274 272 271 267 263 260 255 245 232 223 217 210 204 198 200 201 206
311 316 317 316 316 317 317 319 318 317 316 315 312 311 309 308 306 302 299 293 290 287 284 283 280 277 275 273 270 265 261 258 250 238 221 207 196 195 203 212 218 219 215
306 309 310 310 312 312 311 312 310 310 310 309 308 307 305 306 306 302 298 288 285 284 282 283 283 283 279 275 260 257 251 246 236 219 205 199 200 204 208 206 207 213 216
304 305 306 307 310 311 310 310 309 309 309 310 309 308 307 306 305 304 299 295 286 280 279 283 283 284 280 261 247 247 236 231 223 204 202 200 202 202 200 198 202 202 204
304 304 304 304 304 306 306 305 305 307 307 307 307 308 308 309 313 311 304 296 288 281 281 275 278 287 274 248 233 231 221 228 217 208 197 199 203 199 197 199 203 208 211
299 299 298 297 299 299 300 300 300 301 303 304 306 307 310 311 316 314 310 305 296 288 284 272 278 288 256 231 229 220 215 222 217 210 200 203 198 196 200 206 212 218 222
299 299 298 297 298 299 301 302 302 303 302 301 300 304 312 318 320 320 315 311 300 303 278 272 289 286 245 227 223 220 218 214 214 205 217 216 206 206 212 215 219 225 232
298 297 297 297 297 298 302 304 303 303 298 294 299 306 310 313 322 321 319 313 313 295 288 295 300 283 244 212 226 226 226 217 218 235 219 212 211 217 219 221 228 234 236
298 298 298 297 298 299 300 299 296 299 304 291 294 302 305 308 315 320 317 287 263 267 303 331 334 274 253 237 232 239 245 240 234 211 210 219 225 223 231 231 236 242 243
298 298 298 297 298 297 294 289 287 288 294 300 304 308 310 312 315 318 302 288 290 277 291 310 340 354 245 228 239 242 237 230 222 230 243 242 241 239 240 243 246 251 252
299 298 297 298 299 295 287 279 275 272 275 282 295 316 325 326 314 302 302 276 273 260 270 302 331 339 340 290 264 261 257 254 251 249 247 249 249 248 253 256 255 259 262
301 301 299 299 297 294 282 271 266 260 261 267 284 312 324 329 315 302 306 299 290 282 280 275 283 287 277 271 261 253 257 259 257 254 254 257 258 261 264 264 265 265 262
305 307 305 301 294 288 284 275 265 256 256 262 272 292 310 320 310 297 298 301 303 303 300 295 288 284 280 278 274 268 267 267 266 267 268 268 269 270 271 270 266 263 259
310 311 309 301 291 282 275 266 257 250 248 253 264 281 294 302 300 292 292 294 293 293 293 295 294 288 282 278 276 276 275 274 272 271 271 270 271 271 270 268 265 262 262
314 315 312 305 296 283 270 261 255 251 249 256 267 280 286 293 298 298 297 297 298 297 298 296 295 294 292 291 290 288 286 285 285 282 281 280 278 277 275 273 270 268 265
317 313 308 304 301 296 287 275 269 266 265 267 274 281 287 292 295 298 299 300 301 300 299 298 298 297 297 296 295 293 291 289 285 283 282 281 281 280 279 278 276 274 271
313 310 306 302 297 290 285 279 280 282 284 285 287 289 292 298 305 307 305 303 302 303 302 300 298 296 295 294 294 293 292 291 289 287 285 284 283 281 279 277 275 273 270